ENT4113 EPKT-LTAI

Flight info

Callsign ENT4113
Flight time N/A
Altitude 37000
Route REGTO DCT RAZEC DCT KEKED DCT UPAMA DCT ADORU UG80 EKI UL606 CRD UL854 KOZLU
Aircraft B738/M-SDGHIJ1RWXY/EB1

Departure

Time N/A
Airport Katowice Wojciech Korfanty International Airport (EPKT)

Arrival

Time 2026-05-05 13:57
Airport Antalya International Airport (LTAI)
Time Latitude Longitude Altitude Speed Heading
2026-05-05 12:13 47.06688 22.61022 37028 ft 462 kts 149°
2026-05-05 12:13 47.03927 22.63441 37024 ft 462 kts 149°
2026-05-05 12:14 46.98412 22.68264 37023 ft 461 kts 149°
2026-05-05 12:14 46.92903 22.73070 37030 ft 461 kts 149°
2026-05-05 12:15 46.87388 22.77869 37028 ft 461 kts 149°
2026-05-05 12:15 46.81880 22.82651 37033 ft 461 kts 149°
2026-05-05 12:16 46.76366 22.87426 37037 ft 460 kts 149°
2026-05-05 12:16 46.70855 22.92188 37037 ft 461 kts 149°
2026-05-05 12:17 46.65343 22.96938 37038 ft 460 kts 149°
2026-05-05 12:17 46.59834 23.01674 37037 ft 460 kts 149°
2026-05-05 12:18 46.54357 23.06373 37036 ft 460 kts 149°
2026-05-05 12:18 46.48843 23.11092 37032 ft 460 kts 149°
2026-05-05 12:19 46.43332 23.15798 37042 ft 459 kts 149°
2026-05-05 12:19 46.37826 23.20487 37035 ft 458 kts 149°
2026-05-05 12:20 46.32332 23.25155 37030 ft 458 kts 149°
2026-05-05 12:20 46.26830 23.29819 37036 ft 458 kts 149°
2026-05-05 12:21 46.21322 23.34477 37029 ft 459 kts 149°
2026-05-05 12:21 46.15806 23.39131 37027 ft 459 kts 149°
2026-05-05 12:22 46.10287 23.43777 37023 ft 460 kts 149°
2026-05-05 12:22 46.04755 23.48423 37022 ft 460 kts 149°
2026-05-05 12:23 45.99218 23.53062 37027 ft 461 kts 149°
2026-05-05 12:23 45.93676 23.57694 37022 ft 461 kts 149°
2026-05-05 12:24 45.88123 23.62325 37032 ft 461 kts 149°
2026-05-05 12:24 45.82568 23.66947 37026 ft 462 kts 149°
2026-05-05 12:25 45.77001 23.71567 37024 ft 463 kts 149°
2026-05-05 12:25 45.71429 23.76181 37027 ft 463 kts 149°
2026-05-05 12:26 45.65852 23.80788 37035 ft 463 kts 149°
2026-05-05 12:26 45.60272 23.85387 37034 ft 463 kts 149°
2026-05-05 12:27 45.54684 23.89983 37037 ft 464 kts 149°
2026-05-05 12:27 45.49095 23.94569 37042 ft 464 kts 149°
2026-05-05 12:28 45.43497 23.99151 37041 ft 464 kts 149°
2026-05-05 12:28 45.37897 24.03724 37039 ft 464 kts 149°
2026-05-05 12:29 45.32288 24.08294 37030 ft 465 kts 149°
2026-05-05 12:29 45.26676 24.12856 37019 ft 464 kts 149°
2026-05-05 12:30 45.21071 24.17402 37021 ft 464 kts 149°
2026-05-05 12:30 45.15468 24.21935 37008 ft 464 kts 149°
2026-05-05 12:31 45.09859 24.26463 37021 ft 464 kts 149°
2026-05-05 12:31 45.04250 24.30982 37006 ft 464 kts 149°
2026-05-05 12:32 44.98636 24.35494 37015 ft 465 kts 149°
2026-05-05 12:32 44.93001 24.40012 37017 ft 465 kts 149°
2026-05-05 12:33 44.87409 24.44485 37000 ft 466 kts 149°
2026-05-05 12:33 44.81771 24.48985 37005 ft 466 kts 149°
2026-05-05 12:34 44.76128 24.53479 37010 ft 466 kts 149°
2026-05-05 12:34 44.70475 24.57971 37017 ft 467 kts 149°
2026-05-05 12:35 44.64819 24.62455 37006 ft 467 kts 149°
2026-05-05 12:35 44.59157 24.66934 37012 ft 467 kts 149°
2026-05-05 12:36 44.53488 24.71407 37011 ft 468 kts 149°
2026-05-05 12:36 44.47816 24.75874 37011 ft 468 kts 149°
2026-05-05 12:37 44.42132 24.80339 37015 ft 468 kts 149°
2026-05-05 12:37 44.36442 24.84800 37010 ft 469 kts 149°
2026-05-05 12:38 44.30754 24.89249 37015 ft 469 kts 150°
2026-05-05 12:38 44.25058 24.93694 37018 ft 469 kts 150°
2026-05-05 12:39 44.19360 24.98131 37023 ft 469 kts 150°
2026-05-05 12:39 44.13657 25.02561 37012 ft 470 kts 150°
2026-05-05 12:40 44.07951 25.06984 37023 ft 470 kts 150°
2026-05-05 12:40 44.02239 25.11402 37020 ft 470 kts 150°
2026-05-05 12:41 43.96523 25.15814 37031 ft 470 kts 150°
2026-05-05 12:41 43.90804 25.20218 37024 ft 470 kts 150°
2026-05-05 12:42 43.85083 25.24613 37028 ft 470 kts 150°
2026-05-05 12:42 43.79362 25.29000 37029 ft 470 kts 150°
2026-05-05 12:43 43.73644 25.33375 37034 ft 470 kts 150°
2026-05-05 12:43 43.67929 25.37739 37023 ft 470 kts 150°
2026-05-05 12:44 43.62204 25.42098 37021 ft 469 kts 150°
2026-05-05 12:44 43.56375 25.46176 37025 ft 470 kts 153°
2026-05-05 12:45 43.50475 25.50060 37036 ft 470 kts 153°
2026-05-05 12:45 43.44621 25.53933 37028 ft 470 kts 153°
2026-05-05 12:46 43.38737 25.57865 37020 ft 470 kts 153°
2026-05-05 12:46 43.32859 25.61805 37025 ft 470 kts 153°
2026-05-05 12:47 43.26978 25.65741 37024 ft 470 kts 153°
2026-05-05 12:47 43.21093 25.69669 37022 ft 470 kts 153°
2026-05-05 12:48 43.15207 25.73589 37015 ft 471 kts 153°
2026-05-05 12:48 43.09309 25.77507 37025 ft 471 kts 153°
2026-05-05 12:49 43.03406 25.81420 37024 ft 472 kts 153°
2026-05-05 12:49 42.97486 25.85337 37035 ft 473 kts 153°
2026-05-05 12:50 42.91558 25.89249 37012 ft 473 kts 153°
2026-05-05 12:50 42.85630 25.93154 37026 ft 474 kts 153°
2026-05-05 12:51 42.79687 25.97060 37029 ft 474 kts 154°
2026-05-05 12:51 42.73739 26.00961 37040 ft 474 kts 153°
2026-05-05 12:52 42.67794 26.04852 37021 ft 474 kts 154°
2026-05-05 12:52 42.61849 26.08735 37030 ft 474 kts 154°
2026-05-05 12:53 42.55906 26.12607 37023 ft 474 kts 154°
2026-05-05 12:53 42.49963 26.16472 37033 ft 473 kts 154°
2026-05-05 12:54 42.42058 26.21600 37019 ft 473 kts 154°
2026-05-05 12:55 42.36122 26.25441 37044 ft 473 kts 154°
2026-05-05 12:55 42.30188 26.29273 37050 ft 472 kts 154°
2026-05-05 12:56 42.24259 26.33093 37034 ft 472 kts 154°
2026-05-05 12:56 42.18322 26.36912 37015 ft 473 kts 154°
2026-05-05 12:57 42.12387 26.40721 37029 ft 473 kts 154°
2026-05-05 12:57 42.06438 26.44530 37037 ft 473 kts 154°
2026-05-05 12:58 42.00519 26.48313 37015 ft 474 kts 154°
2026-05-05 12:58 41.94558 26.52116 37029 ft 475 kts 154°
2026-05-05 12:59 41.88578 26.55924 37024 ft 476 kts 154°
2026-05-05 12:59 41.82960 26.60559 37050 ft 475 kts 143°
2026-05-05 13:00 41.74927 26.68368 37024 ft 476 kts 143°
2026-05-05 13:01 41.64111 26.78613 37026 ft 477 kts 144°
2026-05-05 13:01 41.58680 26.83710 37026 ft 477 kts 144°
2026-05-05 13:02 41.53254 26.88797 37040 ft 477 kts 144°
2026-05-05 13:02 41.47820 26.93884 37024 ft 477 kts 144°
2026-05-05 13:03 41.42388 26.98951 37024 ft 477 kts 144°
2026-05-05 13:03 41.36948 27.04010 37030 ft 476 kts 144°
2026-05-05 13:04 41.31520 27.09048 37030 ft 475 kts 144°
2026-05-05 13:04 41.26134 27.14041 37028 ft 475 kts 144°
2026-05-05 13:05 41.20716 27.19053 37048 ft 474 kts 144°
2026-05-05 13:05 41.15297 27.24050 37040 ft 474 kts 144°
2026-05-05 13:06 41.09879 27.29037 37043 ft 474 kts 144°
2026-05-05 13:06 41.04461 27.34017 37051 ft 474 kts 144°
2026-05-05 13:07 40.99040 27.38991 37049 ft 474 kts 145°
2026-05-05 13:07 40.93580 27.43893 37048 ft 475 kts 148°
2026-05-05 13:08 40.87874 27.48291 37080 ft 475 kts 150°
2026-05-05 13:08 40.82098 27.52541 37065 ft 475 kts 150°
2026-05-05 13:09 40.76342 27.56829 37056 ft 475 kts 150°
2026-05-05 13:09 40.70598 27.61156 37066 ft 475 kts 150°
2026-05-05 13:10 40.64863 27.65484 37070 ft 475 kts 150°
2026-05-05 13:10 40.59121 27.69809 37070 ft 476 kts 150°
2026-05-05 13:11 40.53375 27.74125 37063 ft 475 kts 150°
2026-05-05 13:11 40.47632 27.78430 37071 ft 475 kts 150°
2026-05-05 13:12 40.41886 27.82728 37064 ft 475 kts 150°
2026-05-05 13:12 40.36140 27.87018 37074 ft 475 kts 150°
2026-05-05 13:13 40.30436 27.91268 37061 ft 475 kts 150°
2026-05-05 13:13 40.24690 27.95541 37076 ft 475 kts 150°
2026-05-05 13:14 40.18940 27.99809 37068 ft 475 kts 150°
2026-05-05 13:14 40.13190 28.04068 37068 ft 476 kts 150°
2026-05-05 13:15 40.07421 28.08333 37071 ft 476 kts 150°
2026-05-05 13:15 40.01647 28.12594 37063 ft 477 kts 150°
2026-05-05 13:16 39.95872 28.16848 37064 ft 478 kts 150°
2026-05-05 13:16 39.90075 28.21099 37061 ft 478 kts 151°
2026-05-05 13:17 39.84260 28.25335 37055 ft 479 kts 151°
2026-05-05 13:17 39.78441 28.29567 37043 ft 479 kts 151°
2026-05-05 13:18 39.72618 28.33797 37055 ft 480 kts 151°
2026-05-05 13:18 39.66789 28.38024 37065 ft 480 kts 151°
2026-05-05 13:19 39.60953 28.42249 37058 ft 480 kts 151°
2026-05-05 13:19 39.55119 28.46464 37036 ft 480 kts 151°
2026-05-05 13:20 39.49278 28.50676 37049 ft 480 kts 151°
2026-05-05 13:20 39.43449 28.54871 37045 ft 480 kts 151°
2026-05-05 13:21 39.37612 28.59063 37043 ft 479 kts 151°
2026-05-05 13:21 39.31785 28.63241 37039 ft 479 kts 151°
2026-05-05 13:22 39.26006 28.67389 37056 ft 478 kts 149°
2026-05-05 13:22 39.20414 28.72135 37042 ft 478 kts 145°
2026-05-05 13:23 39.15017 28.77057 37049 ft 478 kts 144°
2026-05-05 13:23 39.09566 28.81983 37051 ft 479 kts 145°
2026-05-05 13:24 39.04073 28.86862 37045 ft 480 kts 146°
2026-05-05 13:24 38.98565 28.91714 37039 ft 480 kts 146°
2026-05-05 13:25 38.93044 28.96563 37053 ft 481 kts 146°
2026-05-05 13:25 38.87519 29.01410 37041 ft 481 kts 146°
2026-05-05 13:26 38.81990 29.06252 37037 ft 481 kts 146°
2026-05-05 13:26 38.76465 29.11083 37033 ft 481 kts 146°
2026-05-05 13:27 38.70941 29.15904 37044 ft 480 kts 146°
2026-05-05 13:27 38.65415 29.20717 37036 ft 480 kts 146°
2026-05-05 13:28 38.59878 29.25531 36704 ft 486 kts 146°
2026-05-05 13:28 38.57078 29.27961 36194 ft 485 kts 146°
2026-05-05 13:28 38.54297 29.30373 35712 ft 482 kts 146°
2026-05-05 13:29 38.51539 29.32763 35294 ft 477 kts 146°
2026-05-05 13:29 38.48800 29.35134 34880 ft 474 kts 147°
2026-05-05 13:29 38.46085 29.37483 34468 ft 470 kts 147°
2026-05-05 13:29 38.43386 29.39815 34054 ft 467 kts 147°
2026-05-05 13:30 38.40702 29.42132 33565 ft 464 kts 147°
2026-05-05 13:30 38.38036 29.44432 33127 ft 460 kts 147°
2026-05-05 13:30 38.35395 29.46708 32706 ft 457 kts 147°
2026-05-05 13:30 38.32776 29.48963 32285 ft 453 kts 148°
2026-05-05 13:31 38.30176 29.51200 31887 ft 449 kts 148°
2026-05-05 13:31 38.27603 29.53412 31498 ft 445 kts 148°
2026-05-05 13:31 38.25045 29.55608 31093 ft 442 kts 148°
2026-05-05 13:31 38.22543 29.57755 30709 ft 438 kts 148°
2026-05-05 13:32 38.20025 29.59913 30316 ft 435 kts 149°
2026-05-05 13:32 38.17520 29.62058 29904 ft 432 kts 149°
2026-05-05 13:32 38.15033 29.64187 29454 ft 429 kts 149°
2026-05-05 13:32 38.12570 29.66292 29053 ft 425 kts 149°
2026-05-05 13:33 38.10128 29.68379 28642 ft 421 kts 149°
2026-05-05 13:33 38.07709 29.70444 28243 ft 417 kts 148°
2026-05-05 13:33 38.05315 29.72485 27839 ft 414 kts 148°
2026-05-05 13:33 38.02932 29.74516 27445 ft 411 kts 148°
2026-05-05 13:34 38.00569 29.76528 27058 ft 408 kts 148°
2026-05-05 13:34 37.98221 29.78525 26661 ft 405 kts 148°
2026-05-05 13:34 37.95883 29.80512 26306 ft 404 kts 148°
2026-05-05 13:34 37.93557 29.82489 25928 ft 402 kts 148°
2026-05-05 13:35 37.91235 29.84459 25544 ft 401 kts 148°
2026-05-05 13:35 37.88915 29.86427 25174 ft 403 kts 148°
2026-05-05 13:35 37.86579 29.88406 24775 ft 404 kts 148°
2026-05-05 13:35 37.84249 29.90379 24388 ft 402 kts 148°
2026-05-05 13:36 37.81923 29.92347 23983 ft 401 kts 148°
2026-05-05 13:36 37.79608 29.94306 23598 ft 400 kts 148°
2026-05-05 13:36 37.77296 29.96259 23137 ft 399 kts 148°
2026-05-05 13:36 37.74994 29.98203 22717 ft 396 kts 147°
2026-05-05 13:37 37.72716 30.00124 22328 ft 392 kts 147°
2026-05-05 13:37 37.70455 30.02031 21932 ft 389 kts 147°
2026-05-05 13:37 37.68215 30.03919 21558 ft 386 kts 147°
2026-05-05 13:37 37.65992 30.05790 21180 ft 383 kts 147°
2026-05-05 13:38 37.63785 30.07647 20817 ft 380 kts 147°
2026-05-05 13:38 37.61621 30.09467 20457 ft 377 kts 147°
2026-05-05 13:38 37.59447 30.11293 20100 ft 375 kts 147°
2026-05-05 13:38 37.57278 30.13113 19727 ft 373 kts 147°
2026-05-05 13:39 37.55125 30.14919 19364 ft 371 kts 147°
2026-05-05 13:39 37.52981 30.16716 19002 ft 369 kts 146°
2026-05-05 13:39 37.50846 30.18504 18639 ft 368 kts 146°
2026-05-05 13:39 37.48717 30.20285 18271 ft 366 kts 146°
2026-05-05 13:40 37.46605 30.22052 17866 ft 364 kts 146°
2026-05-05 13:40 37.44503 30.23809 17469 ft 362 kts 146°
2026-05-05 13:40 37.42416 30.25554 17100 ft 359 kts 146°
2026-05-05 13:40 37.40343 30.27284 16751 ft 356 kts 146°
2026-05-05 13:41 37.38291 30.28996 16387 ft 353 kts 146°
2026-05-05 13:41 37.36251 30.30698 16030 ft 350 kts 146°
2026-05-05 13:41 37.34232 30.32380 15695 ft 347 kts 146°
2026-05-05 13:41 37.32231 30.34046 15360 ft 344 kts 146°
2026-05-05 13:42 37.30243 30.35699 15023 ft 342 kts 146°
2026-05-05 13:42 37.28267 30.37342 14682 ft 340 kts 146°
2026-05-05 13:42 37.26303 30.38974 14347 ft 338 kts 146°
2026-05-05 13:42 37.24347 30.40598 14033 ft 335 kts 146°
2026-05-05 13:43 37.22409 30.42207 13709 ft 333 kts 146°
2026-05-05 13:43 37.20480 30.43808 13344 ft 331 kts 146°
2026-05-05 13:43 37.18566 30.45394 12996 ft 328 kts 146°
2026-05-05 13:43 37.17307 30.46437 12765 ft 327 kts 146°
2026-05-05 13:44 37.15418 30.48002 12445 ft 324 kts 146°
2026-05-05 13:44 37.13545 30.49552 12104 ft 321 kts 146°
2026-05-05 13:44 37.11085 30.51586 11673 ft 318 kts 146°
2026-05-05 13:44 37.09248 30.53104 11376 ft 315 kts 146°
2026-05-05 13:45 37.08015 30.54122 11148 ft 314 kts 147°
2026-05-05 13:45 37.05614 30.56105 10725 ft 310 kts 146°
2026-05-05 13:45 37.03819 30.57587 10428 ft 308 kts 147°
2026-05-05 13:45 37.02614 30.58581 10273 ft 305 kts 147°
2026-05-05 13:46 37.00870 30.60019 10147 ft 296 kts 147°
2026-05-05 13:46 36.99169 30.61421 10007 ft 289 kts 147°
2026-05-05 13:46 36.97500 30.62795 9742 ft 287 kts 147°
2026-05-05 13:46 36.95863 30.64142 9461 ft 285 kts 147°
2026-05-05 13:47 36.94216 30.65496 9180 ft 283 kts 147°
2026-05-05 13:47 36.92568 30.66825 8898 ft 281 kts 152°
2026-05-05 13:47 36.90716 30.67465 8634 ft 276 kts 180°
2026-05-05 13:47 36.88799 30.67398 8372 ft 277 kts 185°
2026-05-05 13:48 36.86860 30.67209 8095 ft 280 kts 186°
2026-05-05 13:48 36.84923 30.67018 7791 ft 280 kts 186°
2026-05-05 13:48 36.82981 30.66831 7517 ft 280 kts 186°
2026-05-05 13:48 36.81034 30.66660 7227 ft 281 kts 185°
2026-05-05 13:49 36.79085 30.66496 6946 ft 280 kts 185°
2026-05-05 13:49 36.77146 30.66333 6710 ft 277 kts 185°
2026-05-05 13:49 36.75231 30.66174 6464 ft 276 kts 185°
2026-05-05 13:49 36.73315 30.66016 6209 ft 276 kts 185°
2026-05-05 13:50 36.71407 30.65858 6094 ft 274 kts 185°
2026-05-05 13:50 36.69528 30.65703 5951 ft 267 kts 184°
2026-05-05 13:50 36.67697 30.65551 5848 ft 260 kts 184°
2026-05-05 13:50 36.65915 30.65437 5741 ft 252 kts 177°
2026-05-05 13:51 36.64301 30.66075 5643 ft 242 kts 142°
2026-05-05 13:51 36.63175 30.67584 5421 ft 236 kts 117°
2026-05-05 13:51 36.62552 30.69438 5227 ft 230 kts 100°
2026-05-05 13:51 36.62519 30.71359 4982 ft 219 kts 69°
2026-05-05 13:52 36.63292 30.72942 4771 ft 213 kts 39°
2026-05-05 13:52 36.64527 30.73905 4524 ft 209 kts 17°
2026-05-05 13:52 36.65942 30.74321 4287 ft 211 kts 10°
2026-05-05 13:52 36.67389 30.74672 4078 ft 211 kts 11°
2026-05-05 13:53 36.68837 30.75020 4020 ft 216 kts 11°
2026-05-05 13:53 36.70322 30.75378 4013 ft 218 kts 11°
2026-05-05 13:53 36.71810 30.75739 4008 ft 214 kts 10°
2026-05-05 13:53 36.73257 30.76091 3977 ft 210 kts 11°
2026-05-05 13:54 36.74668 30.76437 3700 ft 208 kts 10°
2026-05-05 13:54 36.76052 30.76777 3488 ft 197 kts 11°
2026-05-05 13:54 36.77452 30.77117 2657 ft 216 kts 10°
2026-05-05 13:54 36.78971 30.77459 2120 ft 218 kts 10°
2026-05-05 13:55 36.80392 30.77812 1773 ft 206 kts 11°
2026-05-05 13:55 36.81742 30.78121 1526 ft 189 kts
2026-05-05 13:55 36.82978 30.78302 1292 ft 172 kts
2026-05-05 13:55 36.84159 30.78461 1074 ft 168 kts
2026-05-05 13:56 36.85325 30.78622 872 ft 170 kts
2026-05-05 13:56 36.86519 30.78786 606 ft 174 kts
2026-05-05 13:56 36.87704 30.78942 367 ft 172 kts
2026-05-05 13:56 36.88858 30.79107 200 ft 162 kts
2026-05-05 13:57 36.89851 30.79246 191 ft 125 kts
2026-05-05 13:57 36.90564 30.79345 197 ft 82 kts
2026-05-05 13:57 36.90958 30.79415 197 ft 29 kts 28°
2026-05-05 13:57 36.91057 30.79509 203 ft 2 kts 36°
2026-05-05 13:58 36.91066 30.79518 201 ft 2 kts 36°
2026-05-05 13:58 36.91074 30.79525 199 ft 1 kts 37°
2026-05-05 13:58 36.91081 30.79532 199 ft 1 kts 37°
2026-05-05 13:58 36.91087 30.79538 195 ft 1 kts 37°
2026-05-05 13:59 36.91136 30.79584 200 ft 11 kts 37°
2026-05-05 13:59 36.91209 30.79662 199 ft 16 kts 60°
2026-05-05 14:00 36.91208 30.79783 190 ft 0 kts 91°
2026-05-05 14:00 36.91207 30.79835 201 ft 10 kts 92°
2026-05-05 14:00 36.91256 30.79887 190 ft 16 kts
2026-05-05 14:00 36.91438 30.79912 196 ft 29 kts
2026-05-05 14:01 36.91618 30.79939 190 ft 21 kts
2026-05-05 14:01 36.91708 30.79975 201 ft 12 kts 66°
2026-05-05 14:01 36.91698 30.80076 190 ft 9 kts 98°
2026-05-05 14:01 36.91684 30.80145 182 ft 6 kts 132°
2026-05-05 14:02 36.91650 30.80149 204 ft 3 kts 191°
2026-05-05 14:02 36.91632 30.80146 190 ft 2 kts 188°
2026-05-05 14:02 36.91631 30.80145 190 ft 0 kts 188°